Monday, October 24, 2022
←Prev Day | Next Day→      ALL | 10-K/Q | Earnings

Company Ticker Filing DATE FP FY End Date URL VIEW
Controladora Vuela Compania de Aviacion, S.A.B. de C.V. VLRS WIREPR 10/24/2022 Q3 2022 9/30/2022 WIRE view data
Celestica Inc CLS WIREPR 10/24/2022 Q3 2022 9/30/2022 WIRE view data
Local Bounti Corporation/DE LOCL S-1 10/24/2022 Q2 2022 6/30/2022 SEC view
AMERCO /NV/ UHAL 8-K 10/24/2022 Q1 2023 6/30/2022 SEC view
CENTURY NEXT FINANCIAL Corp CTUY WIREPR 10/24/2022 Q3 2022 9/30/2022 WIRE view data
BROWN & BROWN, INC. BRO 8-K 10/24/2022 Q3 2022 9/30/2022 SEC view data
Laredo Oil, Inc. LRDC 10-Q 10/24/2022 Q1 2023 8/31/2022 SEC view
AUTOZONE INC AZO 10-K 10/24/2022 Q4 2022 8/27/2022 SEC view
Marquie Group, Inc. TMGI 10-Q 10/24/2022 Q1 2023 8/31/2022 SEC view
CROWN HOLDINGS INC CCK 8-K 10/24/2022 Q3 2022 9/30/2022 SEC view data
NEWMARKET CORP NEU 8-K 10/24/2022 Q3 2022 9/30/2022 SEC view data
Southern States Bancshares, Inc. SSBK 8-K 10/24/2022 Q3 2022 9/30/2022 SEC view data
Industrias Bachoco S.A.B. de C.V. IBA WIREPR 10/24/2022 Q3 2022 9/30/2022 WIRE view data
SMARTFINANCIAL INC. SMBK 8-K 10/24/2022 Q3 2022 9/30/2022 SEC view data
Liquid Media Group Ltd. YVR 6-K 10/24/2022 Q3 2022 8/31/2022 SEC view
Aaron's Company, Inc. AAN 10-Q 10/24/2022 Q3 2022 9/30/2022 SEC view
Crane Holdings, Co. CXT 8-K 10/24/2022 Q3 2022 9/30/2022 SEC view data
Dorman Products, Inc. DORM 10-Q 10/24/2022 Q3 2022 9/24/2022 SEC view
RANGE RESOURCES CORP RRC 10-Q 10/24/2022 Q3 2022 9/30/2022 SEC view
HEXCEL CORP /DE/ HXL 10-Q 10/24/2022 Q3 2022 9/30/2022 SEC view
KKR Real Estate Finance Trust Inc. KREF 10-Q 10/24/2022 Q3 2022 9/30/2022 SEC view
SUN COMMUNITIES INC SUI 8-K 10/24/2022 Q3 2022 9/30/2022 SEC view data
Aaron's Company, Inc. AAN 8-K 10/24/2022 Q3 2022 9/30/2022 SEC view data
FLEXSTEEL INDUSTRIES INC FLXS 8-K 10/24/2022 Q1 2023 9/30/2022 SEC view data
SCHNITZER STEEL INDUSTRIES, INC. RDUS 10-K 10/24/2022 Q4 2022 8/31/2022 SEC view
CATHAY GENERAL BANCORP CATY 8-K 10/24/2022 Q3 2022 9/30/2022 SEC view data
HEALTHSTREAM INC HSTM 8-K 10/24/2022 Q3 2022 9/30/2022 SEC view data
ALBANY INTERNATIONAL CORP /DE/ AIN 8-K 10/24/2022 Q3 2022 9/30/2022 SEC view data
LAM RESEARCH CORP LRCX 10-Q 10/24/2022 Q1 2023 9/25/2022 SEC view
TrueBlue, Inc. TBI 10-Q 10/24/2022 Q3 2022 9/25/2022 SEC view
CADENCE DESIGN SYSTEMS INC CDNS 10-Q 10/24/2022 Q3 2022 10/1/2022 SEC view
Hilltop Holdings Inc. HTH 10-Q 10/24/2022 Q3 2022 9/30/2022 SEC view
APPLIED GENETIC TECHNOLOGIES CORP AGTC 10-K/A 10/24/2022 Q4 2022 6/30/2022 SEC view
Apollo Commercial Real Estate Finance, Inc. ARI 10-Q 10/24/2022 Q3 2022 9/30/2022 SEC view
Cadence Bancorporation CADE WIREPR 10/24/2022 Q3 2022 9/30/2022 WIRE view data
Southeast Airport Group ASR WIREPR 10/24/2022 Q3 2022 9/30/2022 WIRE view data
WSFS FINANCIAL CORP WSFS 8-K 10/24/2022 Q3 2022 9/30/2022 SEC view data
HEXCEL CORP /DE/ HXL 8-K 10/24/2022 Q3 2022 9/30/2022 SEC view data
ENTERPRISE FINANCIAL SERVICES CORP EFSC 8-K 10/24/2022 Q3 2022 9/30/2022 SEC view data
WASHINGTON TRUST BANCORP INC WASH 8-K 10/24/2022 Q3 2022 9/30/2022 SEC view data
HOPE BANCORP INC HOPE 8-K 10/24/2022 Q3 2022 9/30/2022 SEC view data
KKR Real Estate Finance Trust Inc. KREF 8-K 10/24/2022 Q3 2022 9/30/2022 SEC view data
HEIDRICK & STRUGGLES INTERNATIONAL INC HSII 10-Q 10/24/2022 Q3 2022 9/30/2022 SEC view
ALEXANDRIA REAL ESTATE EQUITIES, INC. ARE 10-Q 10/24/2022 Q3 2022 9/30/2022 SEC view
Simpson Manufacturing Co., Inc. SSD 8-K 10/24/2022 Q3 2022 9/30/2022 SEC view data
POTLATCHDELTIC CORP PCH 8-K 10/24/2022 Q3 2022 9/30/2022 SEC view data
Discover Financial Services DFS 8-K 10/24/2022 Q3 2022 9/30/2022 SEC view data
OCEANFIRST FINANCIAL CORP OCFC 8-K 10/24/2022 Q3 2022 9/30/2022 SEC view data
ZIONS BANCORPORATION, NATIONAL ASSOCIATION /UT/ ZION 8-K 10/24/2022 Q3 2022 9/30/2022 SEC view data
BERKLEY W R CORP WRB 8-K 10/24/2022 Q3 2022 9/30/2022 SEC view data
RBB Bancorp RBB 8-K 10/24/2022 Q3 2022 9/30/2022 SEC view data
Medpace Holdings, Inc. MEDP 8-K 10/24/2022 Q3 2022 9/30/2022 SEC view data
PARK NATIONAL CORP /OH/ PRK 8-K 10/24/2022 Q3 2022 9/30/2022 SEC view data
SouthState Corp SSB 8-K 10/24/2022 Q3 2022 9/30/2022 SEC view data
Qualtrics International Inc. XM 8-K 10/24/2022 Q3 2022 9/30/2022 SEC view data
ALEXANDRIA REAL ESTATE EQUITIES, INC. ARE 8-K 10/24/2022 Q3 2022 9/30/2022 SEC view data
TrueBlue, Inc. TBI 8-K 10/24/2022 Q3 2022 9/25/2022 SEC view data
Heidrick & Struggles International Inc HSII WIREPR 10/24/2022 Q3 2022 9/30/2022 WIRE view data
CALIX, INC CALX 8-K 10/24/2022 Q3 2022 10/1/2022 SEC view data
HomeStreet, Inc. MCHB 8-K 10/24/2022 Q3 2022 9/30/2022 SEC view data
CADENCE DESIGN SYSTEMS INC CDNS 8-K 10/24/2022 Q3 2022 10/1/2022 SEC view data
AGNC Investment Corp. AGNC 8-K 10/24/2022 Q3 2022 9/30/2022 SEC view data
Citizens Community Bancorp Inc. CZWI 8-K 10/24/2022 Q3 2022 9/30/2022 SEC view data
TRUSTCO BANK CORP N Y TRST 8-K 10/24/2022 Q3 2022 9/30/2022 SEC view data
NextPlay Technologies Inc. NXTP 10-Q 10/24/2022 Q2 2023 8/31/2022 SEC view
WD 40 CO WDFC 10-K 10/24/2022 Q4 2022 8/31/2022 SEC view
GRAYBAR ELECTRIC CO INC GRAYBAR 10-Q 10/24/2022 Q3 2022 9/30/2022 SEC view
flooidCX Corp. FLCX 10-Q 10/24/2022 Q2 2023 8/31/2022 SEC view
SURF AIR MOBILITY INC. SRFM S-4 10/24/2022 Q0 0 1/1/1900 SEC view
BANK OF HAWAII CORP BOH 8-K 10/24/2022 Q3 2022 9/30/2022 SEC view data
Investar Holding Corp ISTR 8-K 10/24/2022 Q3 2022 9/30/2022 SEC view data
SIERRA BANCORP BSRR 8-K 10/24/2022 Q3 2022 9/30/2022 SEC view data
CITIZENS FINANCIAL SERVICES INC CZFS 8-K 10/24/2022 Q3 2022 9/30/2022 SEC view data
China King Spirit Group Ltd. CKSG 10-Q 10/24/2022 Q2 2021 12/31/2021 SEC view
Mid-Southern Bancorp, Inc. MSVB 8-K 10/24/2022 Q3 2022 9/30/2022 SEC view data
YUMANITY THERAPEUTICS, INC. KANT S-4/A 10/24/2022 Q2 2022 6/30/2022 SEC view
COMMUNITY BANK SYSTEM, INC. CBU 8-K 10/24/2022 Q3 2022 9/30/2022 SEC view data
Richmond Mutual Bancorporation, Inc. RMBI 8-K 10/24/2022 Q3 2022 9/30/2022 SEC view data
PEOPLES BANCORP OF NORTH CAROLINA INC PEBK 8-K 10/24/2022 Q3 2022 9/30/2022 SEC view data
Northwest Bancshares, Inc. NWBI 8-K 10/24/2022 Q3 2022 9/30/2022 SEC view data
MetroCorp Bancshares, Inc. MCBI WIREPR 10/24/2022 Q3 2022 9/30/2022 WIRE view data
Imperial Petroleum Inc./Marshall Islands IMPP WIREPR 10/24/2022 Q3 2022 9/30/2022 WIRE view data
Bank of Marin Bancorp BMRC 8-K 10/24/2022 Q3 2022 9/30/2022 SEC view data
Psb Holdings Inc /WI/ PSBQ WIREPR 10/24/2022 Q3 2022 9/30/2022 WIRE view data
Executive Network Partnering Corp ENPC 8-K 10/24/2022 Q3 2022 9/30/2022 SEC view data
DYNEX CAPITAL INC DX 8-K 10/24/2022 Q3 2022 9/30/2022 SEC view data
SCHNITZER STEEL INDUSTRIES, INC. RDUS 8-K 10/24/2022 Q4 2022 8/31/2022 SEC view data
Genenta Science S.p.A. GNTA WIREPR 10/24/2022 Q2 2022 6/30/2022 WIRE view data
HNI CORP HNI 8-K 10/24/2022 Q3 2022 10/1/2022 SEC view data
KIRBY CORP KEX 8-K 10/24/2022 Q3 2022 9/30/2022 SEC view data
CONSUMERS BANCORP INC /OH/ CBKM 8-K 10/24/2022 Q1 2023 9/30/2022 SEC view data
HBT Financial, Inc. HBT 8-K 10/24/2022 Q3 2022 9/30/2022 SEC view data
Dorman Products, Inc. DORM 8-K 10/24/2022 Q3 2022 9/24/2022 SEC view data
Tiga Acquisition Corp. GRND S-4/A 10/24/2022 Q2 2022 6/30/2022 SEC view
Tesla, Inc. TSLA 10-Q 10/24/2022 Q3 2022 9/30/2022 SEC view
GLOBAL TECH INDUSTRIES GROUP, INC. GTII 10-K/A 10/24/2022 Q4 2021 12/31/2021 SEC view
Rexford Industrial Realty, Inc. REXR 10-Q 10/24/2022 Q3 2022 9/30/2022 SEC view
Skillsoft Corp. SKIL 10-Q/A 10/24/2022 Q1 2021 3/31/2021 SEC view
Skillsoft Corp. SKIL 10-K/A 10/24/2022 Q4 2020 12/31/2020 SEC view
Health Sciences Acquisitions Corp 2 OBIO S-4/A 10/24/2022 Q2 2022 6/30/2022 SEC view
Metaterra Corp. CIK0001918884 10-Q 10/24/2022 Q3 2022 9/30/2022 SEC view
Nidec Corp NJDCY WIREPR 10/24/2022 Q2 2023 9/30/2022 WIRE view data
Nidec Corp NJDCY WIREPR 10/24/2022 Q2 2023 9/30/2022 WIRE view data